Location: Valencia
(39.4696°N, 0.3770°W)
Time: 11:50:03
(UTC+01:00)

ISS - Visible Passes

Search period start: 10 February 2016 00:00
Search period end: 20 February 2016 00:00
Orbit: 398 x 408 km, 51.6° (Epoch: 09 February)

Date Brightness Start Highest point End Pass type
(mag) Time Alt. Az. Time Alt. Az. Time Alt. Az.
12 Feb -0.8 19:57:43 10° N 19:58:53 11° N 19:58:54 11° NNE visible
13 Feb -0.7 19:05:35 10° N 19:05:50 10° N 19:06:05 10° N visible
13 Feb -0.4 20:40:39 10° NNW 20:41:03 12° NNW 20:41:03 12° NNW visible
14 Feb -1.3 19:48:13 10° NNW 19:50:17 16° NNE 19:50:35 15° NNE visible
15 Feb -1.3 20:31:17 10° NW 20:32:48 23° NNW 20:32:48 23° NNW visible
16 Feb -2.0 19:38:44 10° NNW 19:41:28 24° NNE 19:42:28 21° NE visible
16 Feb 0.2 21:14:55 10° WNW 21:15:06 11° WNW 21:15:06 11° WNW visible
17 Feb -3.1 20:22:01 10° NW 20:24:51 66° NW 20:24:51 66° NW visible
18 Feb -3.0 19:29:15 10° NW 19:32:24 46° NNE 19:34:43 16° ESE visible
18 Feb -0.2 21:06:23 10° W 21:07:23 14° WSW 21:07:23 14° WSW visible
19 Feb -1.8 20:12:56 10° WNW 20:15:54 33° SW 20:17:26 21° S visible
